LFOBLIBD

Guest
Details From LFOB - Beauvais-Tille
To LIBD - Bari Palese Macchie
Flight Number -
Tags decoded
Created
Modified
Stats Distance 793 nm / 1,468 km
Max Altitude 0 ft / 0 m
Waypoints 2
Social Downloads 0
Likes 0
Share VATSIM

Download

Looking for another format? Having issues loading an existing format? Contact us
Advertisement - Login to hide

Notes

Requested: LFOB 42 LIBD Unmatched points: 42

Route

LFOB LIBD

ID Type Via Altitude Latitude Longitude Leg Dist Tot Dist Heading (true) Name
O LFOB APT - 0 ft / 0 m 49.45600˚ 2.11891˚ - 0 nm - Beauvais-Tille
O LIBD APT - 0 ft / 0 m 41.13787˚ 16.75832˚ 792 nm 792 nm 124° / 134° Bari Palese Macchie

Altitude Profile

Advertisement - Login to hide

Weather


0- 5 10 15 20 25 30 35+ Temperature / ° C

Clouds and Precipitation
Forecast for 2018-05-22 12:00 UTC. Updated 2 hours ago

Ground ~20,000 ft ~40,000 ft Winds

LFOB

Details ICAO LFOB (BVA)
Name Beauvais-Tille
Region France
Timezone Europe/Paris (UTC+2.0)
Stats Elevation 358 ft / 109 m (AMSL)
Location 49.456000° 2.118914°
Runways 2
Magnetic Variation 0.534° E

METAR

LFOB 221030Z AUTO 35004KT 280V020 CAVOK 21/13 Q1013 TEMPO VRB15G25KT 3000 SHRA BKN050CB

Decode

TAF

TAF LFOB 220500Z 2206/2306 33005KT 5000 BR NSC BECMG 2208/2210 9999 NSW SCT050TCU TEMPO 2211/2221 3000 SHRA BKN050CB PROB40 TEMPO 2212/2221 VRB15G25KT TSRAGR TEMPO 2303/2306 4000 BR

Decode

Departure Runways

ID Width Length Bearing (true) Bearing (mag) Surface Threshold Offset Overrun Length
04 82 ft / 25 m 2,321 ft / 707 m 41.41° 40.88° Asphalt 0 ft / 0 m 0 ft / 0 m
12 148 ft / 45 m 7,954 ft / 2,424 m 123.73° 123.20° Asphalt 148 ft / 45 m 0 ft / 0 m
22 82 ft / 25 m 2,321 ft / 707 m 221.41° 220.88° Asphalt 0 ft / 0 m 0 ft / 0 m
30 148 ft / 45 m 7,954 ft / 2,424 m 303.75° 303.22° Asphalt 0 ft / 0 m 0 ft / 0 m

LIBD

Details ICAO LIBD (BRI)
Name Bari Palese Macchie
Region Italy
Timezone Europe/Rome (UTC+2.0)
Stats Elevation 177 ft / 54 m (AMSL)
Location 41.137865° 16.758318°
Runways 1
Magnetic Variation 3.782° E

METAR

LIBD 221020Z 09013KT 9999 FEW030 25/12 Q1015

Decode

TAF

TAF LIBD 220500Z 2206/2306 VRB05KT 9999 FEW030 BECMG 2209/2211 02010KT TEMPO 2212/2218 TSRA BECMG 2215/2218 VRB05KT

Decode

Destination Runways

ID Width Length Bearing (true) Bearing (mag) Surface Threshold Offset Overrun Length
07 148 ft / 45 m 9,262 ft / 2,823 m 69.39° 65.61° Asphalt 1,257 ft / 383 m 0 ft / 0 m
25 148 ft / 45 m 9,262 ft / 2,823 m 249.42° 245.64° Asphalt 0 ft / 0 m 194 ft / 59 m

Approach Navaids

Runway Type Ident Frequency Range Bearing (true) Bearing (mag) Slope Elevation
07 Localiser BAP 111.35 MHz 18 nm / 33 km 69.25° 65.47° - 177 ft / 54 m (AMSL)
07 Glidescope BAP 111.35 MHz 10 nm / 19 km 69.25° 65.47° 3.32° 177 ft / 54 m (AMSL)
07 DME BAP 111.35 MHz 18 nm / 33 km - - - 183 ft / 56 m (AMSL)

Popular Alternatives